Location: Camaret
(48.2753°N, 4.5961°W)
Time: 19:58:48
(UTC+00:00)

X-37B - Visible Passes

Search period start: 22 January 2021 00:00
Search period end: 01 February 2021 00:00
Orbit: 385 x 390 km, 45.0° (Epoch: 20 January)

Date Brightness Start Highest point End Pass type
(mag) Time Alt. Az. Time Alt. Az. Time Alt. Az.
22 Jan 1.5 18:45:11 10° SW 18:48:07 35° SSE 18:48:34 33° SE visible
23 Jan 2.1 17:47:09 10° SW 17:49:53 27° SSE 17:52:38 10° E visible
23 Jan 2.2 19:23:07 10° WSW 19:25:09 32° SW 19:25:09 32° SW visible
24 Jan 1.4 18:24:52 10° WSW 18:27:54 42° S 18:29:28 23° ESE visible
24 Jan 3.9 20:01:16 10° W 20:01:45 13° WSW 20:01:45 13° WSW visible
25 Jan 1.2 19:02:56 10° WSW 19:05:59 45° S 19:06:04 45° S visible
26 Jan 1.3 18:04:38 10° WSW 18:07:42 46° S 18:10:25 12° ESE visible
26 Jan 3.0 19:41:11 10° W 19:42:43 22° WSW 19:42:43 22° WSW visible
27 Jan 1.6 18:42:47 10° W 18:45:47 39° S 18:47:07 25° SE visible
28 Jan 1.5 17:44:28 10° WSW 17:47:31 45° S 17:50:34 10° ESE visible
28 Jan 2.6 19:21:12 10° WSW 19:23:45 23° SSW 19:23:54 22° SSW visible
29 Jan 2.2 18:22:42 10° W 18:25:33 31° SSW 18:28:24 10° SE visible
30 Jan 3.3 19:01:27 10° WSW 19:03:26 16° SSW 19:05:25 10° S visible
31 Jan 2.9 18:02:43 10° WSW 18:05:17 22° SSW 18:07:50 10° SSE visible
